Tracking 20625 objects as of 9-Apr-2020
HD Live streaming from Space Station
objects crossing your sky now

MOLNIYA 3-47

Track MOLNIYA 3-47 now!
MOLNIYA 3-47 is classified as:


NORAD ID: 23642
Int'l Code: 1995-042A
Perigee: 2,002.0 km
Apogee: 38,133.3 km
Inclination: 63.2 °
Period: 713.0 minutes
Semi major axis: 26438 km
RCS: 13.479 m2 (large)
Launch date: August 9, 1995
Source: Commonwealth of Independent States (former USSR) (CIS)
Launch site: PLESETSK MISSILE AND SPACE COMPLEX (PKMTR)
aabbcc
Your satellite tracking list
Your tracking list is empty




NASA's NSSDC Master Catalog

Two Line Element Set (TLE):
1 23642U 95042A   20099.09614655 -.00000820 +00000-0 +69847-1 0  9999
2 23642 063.2245 163.6468 6833052 288.5894 012.4390 02.01950525180878
Source of the keplerian elements: AFSPC